Regional Weather Roundup
Issued by NWS Jackson, KY

Home | Current Version | Previous Version | Graphics & Text | Print | Product List | Glossary On
Versions: 1 2 3 4 5 6 7 8 9 10 11 12 13 14 15 16 17 18 19 20 21 22 23 24 25 26 27 28 29 30 31 32 33 34 35 36 37 38 39 40 41 42 43 44 45 46 47 48 49 50
000
ASUS43 KJKL 221205
RWRJKL

EAST KENTUCKY HOURLY WEATHER ROUNDUP
NATIONAL WEATHER SERVICE JACKSON KY
700 AM EST MON DEC 22 2014

NOTE: "FAIR" INDICATES FEW OR NO CLOUDS BELOW 12,000 FEET WITH
NO SIGNIFICANT WEATHER AND/OR OBSTRUCTIONS TO VISIBILITY.

* THESE REPORTS ARE NOT UNDER NWS QUALITY CONTROL AND MAY NOT
  REPORT WEATHER SUCH AS PRECIPITATION AND FOG.

KYZ079-080-083-085-087-088-110-112-115-119-120-221300
...EASTERN KENTUCKY...

CITY           SKY/WX    TMP DP  RH WIND       PRES   REMARKS
JACKSON        CLOUDY    40  33  76 S3        30.02R
6HR MIN TEMP:  36; 6HR MAX TEMP:  42; 6HR PCP:  0.01;

LONDON         CLOUDY    42  35  76 CALM      30.02R
6HR MIN TEMP:  35; 6HR MAX TEMP:  43;

SOMERSET*      CLOUDY    36  32  87 CALM      30.02S
MONTICELLO*    CLOUDY    46  38  74 S5        30.03S
6HR MIN TEMP:  30; 6HR MAX TEMP:  47;

HARLAN APT*    CLOUDY    43  34  70 CALM      30.02F
BLACK MTN*       N/A     37  37 100 S2          N/A
PIKEVILLE APT* CLOUDY    39  34  81 SE3       30.03R
BIG SANDY*     CLOUDY    38  33  83 E5        30.04S WCI  34
6HR MIN TEMP:  32; 6HR MAX TEMP:  38;

MOREHEAD APT*  CLOUDY    37  28  70 E5        30.04F WCI  34
$$

KYZ035-036-041-042-044-050-067-078-099-221300
...CENTRAL KENTUCKY...

CITY           SKY/WX    TMP DP  RH WIND       PRES   REMARKS
MT STERLING*   CLOUDY    36  30  80 SE7       30.03S WCI  30
FLEMING/MASON* CLOUDY    33  29  86 E3        30.04S
DANVILLE*      CLOUDY    36  32  87 S5        30.02S WCI  32
RICHMOND*      CLOUDY    36  28  75 E3        30.01S
LEXINGTON      CLOUDY    37  29  72 SE8       30.01R WCI  31
6HR MIN TEMP:  35; 6HR MAX TEMP:  38;

FRANKFORT      MOCLDY    30  27  88 CALM      30.00R
6HR MIN TEMP:  30; 6HR MAX TEMP:  34;

$$

KYZ091>093-OHZ055-061-077-WVZ005-015-034-035-042-221300
...SOUTHERN OHIO/WEST VIRGINIA...

CITY           SKY/WX    TMP DP  RH WIND       PRES   REMARKS
COVINGTON      CLOUDY    34  26  72 SE7       30.01S WCI  28
COLUMBUS       CLOUDY    29  24  82 E5        30.06S WCI  24
DAYTON         CLOUDY    30  26  85 E8        30.03S WCI  22
WILMINGTON     CLOUDY    29  25  85 E7        30.03S FOG     WCI  22
HUNTINGTON     CLOUDY    38  32  79 CALM      30.04S
CHARLESTON     CLOUDY    33  29  85 E5        30.06F WCI  29
PINEVILLE*     CLOUDY    37  37 100 MISG      30.11S
BECKLEY        CLOUDY    35  30  82 SE9       30.06S WCI  28
BLUEFIELD      CLOUDY    36  31  82 NE5       30.07R WCI  32
$$

VAZ002-007-008-TNZ017-027-036-066-071-221300
...SOUTHWEST VIRGINIA/EAST TENNESSEE...

CITY           SKY/WX    TMP DP  RH WIND       PRES   REMARKS
WISE*          CLOUDY    41  34  75 SE6       30.03S
JONESVILLE*    CLOUDY    39  37  93 CALM      30.05S
ABINGDON*      CLOUDY    41  37  83 E9        30.05S
BRISTOL        CLOUDY    40  36  86 CALM      30.04F
KNOXVILLE      CLOUDY    43  38  82 CALM      30.03R
OAK RIDGE      CLOUDY    45  38  76 CALM      30.05R
CROSSVILLE     CLOUDY    45  39  79 SE3       29.99S
NASHVILLE      CLOUDY    48  44  86 SE5       29.95F
$$

...KEY TO REMARKS...
VSB - VISIBILITY IN MILES
WCI - WIND CHILL INDEX
HX  - HEAT INDEX

$$



USA.gov is the U.S. government's official web portal to all federal, state and local government web resources and services.